Hourly Weather Olivet

Today, 7 July, Tuesday

Time Temperature Precipitation Wind Pressure Humidity
00:00 +10°C° 0 mm 2 mps 759 mmHg 83%
01:00 +10°C° 0 mm 2 mps 758 mmHg 86%
02:00 +9°C° 0 mm 2 mps 758 mmHg 88%
03:00 +9°C° 0 mm 1 mps 758 mmHg 90%
04:00 +11°C° 0 mm 1 mps 758 mmHg 87%
05:00 +12°C° 0 mm 1 mps 758 mmHg 84%
06:00 +13°C° 0 mm 1 mps 758 mmHg 81%
07:00 +15°C° 0 mm 1 mps 758 mmHg 73%
08:00 +16°C° 0 mm 0 mps 758 mmHg 65%
09:00 +18°C° 0 mm 0 mps 758 mmHg 57%
10:00 +21°C° 0 mm 1 mps 758 mmHg 53%
11:00 +22°C° 0 mm 1 mps 757 mmHg 49%
12:00 +23°C° 0 mm 2 mps 757 mmHg 44%
13:00 +24°C° 0 mm 2 mps 757 mmHg 44%
14:00 +24°C° 0 mm 2 mps 756 mmHg 43%
15:00 +24°C° 0 mm 2 mps 756 mmHg 42%
16:00 +24°C° 0 mm 2 mps 756 mmHg 48%
17:00 +23°C° 0 mm 2 mps 756 mmHg 53%
18:00 +22°C° 0 mm 1 mps 755 mmHg 59%
19:00 +21°C° 0 mm 1 mps 756 mmHg 63%
20:00 +19°C° 0 mm 1 mps 756 mmHg 67%
21:00 +16°C° 0 mm 1 mps 756 mmHg 71%
22:00 +16°C° 0 mm 1 mps 756 mmHg 74%
23:00 +15°C° 0 mm 1 mps 756 mmHg 78%

Tomorrow, 8 July, Wednesday

Time Temperature Precipitation Wind Pressure Humidity
00:00 +14°C° 0 mm 1 mps 756 mmHg 82%
01:00 +14°C° 0 mm 1 mps 756 mmHg 83%
02:00 +13°C° 0 mm 1 mps 756 mmHg 84%
03:00 +13°C° 0 mm 1 mps 755 mmHg 86%
04:00 +13°C° 0 mm 0 mps 755 mmHg 83%
05:00 +14°C° 0 mm 0 mps 755 mmHg 79%
06:00 +15°C° 0 mm 0 mps 755 mmHg 76%
07:00 +19°C° 0 mm 1 mps 756 mmHg 69%
08:00 +21°C° 0 mm 1 mps 756 mmHg 63%
09:00 +23°C° 0 mm 2 mps 756 mmHg 56%
10:00 +24°C° 0 mm 2 mps 756 mmHg 53%
11:00 +25°C° 0 mm 2 mps 756 mmHg 49%
12:00 +26°C° 0 mm 2 mps 755 mmHg 46%
13:00 +27°C° 0 mm 2 mps 755 mmHg 47%
14:00 +27°C° 0 mm 2 mps 755 mmHg 47%
15:00 +27°C° 0 mm 2 mps 755 mmHg 47%
16:00 +27°C° 0 mm 2 mps 755 mmHg 53%
17:00 +26°C° 0 mm 2 mps 755 mmHg 58%
18:00 +25°C° 0 mm 2 mps 755 mmHg 64%
19:00 +24°C° 0 mm 2 mps 755 mmHg 71%
20:00 +21°C° 0 mm 2 mps 755 mmHg 78%
21:00 +19°C° 0 mm 2 mps 756 mmHg 85%
22:00 +19°C° 0 mm 1 mps 756 mmHg 87%
23:00 +19°C° 0 mm 1 mps 755 mmHg 89%

Day after tomorrow, 9 July, Thursday

Time Temperature Precipitation Wind Pressure Humidity
00:00 +18°C° 0 mm 1 mps 755 mmHg 91%
01:00 +18°C° 0 mm 1 mps 755 mmHg 91%
02:00 +18°C° 0 mm 1 mps 755 mmHg 91%
03:00 +18°C° 0 mm 1 mps 755 mmHg 92%
04:00 +18°C° 0 mm 1 mps 755 mmHg 89%
05:00 +19°C° 0 mm 1 mps 755 mmHg 87%
06:00 +18°C° 0 mm 0 mps 755 mmHg 85%
07:00 +22°C° 0 mm 1 mps 755 mmHg 77%
08:00 +24°C° 0 mm 1 mps 755 mmHg 69%
09:00 +26°C° 0 mm 1 mps 755 mmHg 62%
10:00 +27°C° 0 mm 2 mps 754 mmHg 56%
11:00 +28°C° 0 mm 2 mps 754 mmHg 51%
12:00 +30°C° 0 mm 2 mps 753 mmHg 46%
13:00 +30°C° 0 mm 3 mps 753 mmHg 45%
14:00 +30°C° 0 mm 3 mps 753 mmHg 45%
15:00 +31°C° 0 mm 3 mps 752 mmHg 45%
16:00 +30°C° 0 mm 3 mps 752 mmHg 50%
17:00 +29°C° 0 mm 3 mps 752 mmHg 55%
18:00 +28°C° 0 mm 2 mps 751 mmHg 60%
19:00 +26°C° 0 mm 2 mps 751 mmHg 66%
20:00 +24°C° 0 mm 2 mps 752 mmHg 72%
21:00 +21°C° 0 mm 2 mps 752 mmHg 78%
22:00 +20°C° 0 mm 2 mps 752 mmHg 81%
23:00 +19°C° 0 mm 3 mps 751 mmHg 83%

10 July, Friday

Time Temperature Precipitation Wind Pressure Humidity
00:00 +18°C° 0 mm 3 mps 751 mmHg 86%
01:00 +18°C° 0 mm 3 mps 751 mmHg 89%
02:00 +17°C° 0 mm 2 mps 752 mmHg 92%
03:00 +16°C° 0 mm 2 mps 752 mmHg 95%
04:00 +16°C° 0 mm 3 mps 752 mmHg 91%
05:00 +17°C° 0 mm 3 mps 753 mmHg 86%
06:00 +17°C° 0 mm 3 mps 753 mmHg 81%
07:00 +18°C° 0 mm 3 mps 754 mmHg 75%
08:00 +19°C° 0 mm 4 mps 754 mmHg 69%
09:00 +19°C° 0 mm 4 mps 755 mmHg 62%
10:00 +20°C° 0 mm 4 mps 755 mmHg 56%
11:00 +21°C° 0 mm 4 mps 756 mmHg 49%
12:00 +22°C° 0 mm 4 mps 756 mmHg 42%
13:00 +22°C° 0 mm 4 mps 756 mmHg 43%
14:00 +22°C° 0 mm 4 mps 756 mmHg 44%
15:00 +22°C° 0 mm 4 mps 756 mmHg 44%
16:00 +22°C° 0 mm 4 mps 756 mmHg 48%
17:00 +21°C° 0 mm 4 mps 756 mmHg 51%
18:00 +20°C° 0 mm 4 mps 756 mmHg 55%
19:00 +18°C° 0 mm 4 mps 757 mmHg 60%
20:00 +16°C° 0 mm 3 mps 757 mmHg 65%
21:00 +13°C° 0 mm 3 mps 758 mmHg 71%
22:00 +12°C° 0 mm 3 mps 758 mmHg 74%
23:00 +11°C° 0 mm 3 mps 758 mmHg 78%

11 July, Saturday

Time Temperature Precipitation Wind Pressure Humidity
00:00 +10°C° 0 mm 3 mps 758 mmHg 81%
01:00 +10°C° 0 mm 3 mps 758 mmHg 84%
02:00 +10°C° 0 mm 2 mps 758 mmHg 86%
03:00 +9°C° 0 mm 2 mps 758 mmHg 89%
04:00 +10°C° 0 mm 2 mps 758 mmHg 86%
05:00 +12°C° 0 mm 2 mps 759 mmHg 82%
06:00 +13°C° 0 mm 2 mps 759 mmHg 79%
07:00 +15°C° 0 mm 2 mps 759 mmHg 70%
08:00 +17°C° 0 mm 2 mps 759 mmHg 60%
09:00 +19°C° 0 mm 2 mps 759 mmHg 51%
10:00 +20°C° 0 mm 2 mps 759 mmHg 47%
11:00 +21°C° 0 mm 3 mps 759 mmHg 44%
12:00 +22°C° 0 mm 3 mps 759 mmHg 40%
13:00 +24°C° 0 mm 3 mps 759 mmHg 39%
14:00 +24°C° 0 mm 3 mps 758 mmHg 39%
15:00 +25°C° 0 mm 3 mps 758 mmHg 38%
16:00 +24°C° 0 mm 3 mps 758 mmHg 43%
17:00 +22°C° 0 mm 3 mps 758 mmHg 47%
18:00 +22°C° 0 mm 3 mps 758 mmHg 52%
19:00 +20°C° 0 mm 3 mps 758 mmHg 57%
20:00 +18°C° 0 mm 3 mps 759 mmHg 63%
21:00 +16°C° 0 mm 3 mps 759 mmHg 68%
22:00 +14°C° 0 mm 3 mps 759 mmHg 70%
23:00 +13°C° 0 mm 4 mps 759 mmHg 73%

12 July, Sunday

Time Temperature Precipitation Wind Pressure Humidity
00:00 +12°C° 0 mm 4 mps 759 mmHg 75%
01:00 +12°C° 0 mm 4 mps 759 mmHg 76%
02:00 +11°C° 0 mm 4 mps 759 mmHg 78%
03:00 +11°C° 0 mm 4 mps 759 mmHg 79%
04:00 +11°C° 0 mm 4 mps 759 mmHg 78%
05:00 +12°C° 0 mm 4 mps 759 mmHg 76%
06:00 +12°C° 0 mm 4 mps 759 mmHg 74%
07:00 +14°C° 0 mm 4 mps 759 mmHg 69%
08:00 +17°C° 0 mm 4 mps 759 mmHg 63%
09:00 +19°C° 0 mm 4 mps 759 mmHg 57%
10:00 +21°C° 0 mm 5 mps 759 mmHg 53%
11:00 +22°C° 0 mm 5 mps 759 mmHg 49%
12:00 +23°C° 0 mm 5 mps 759 mmHg 45%
13:00 +25°C° 0 mm 5 mps 758 mmHg 45%
14:00 +25°C° 0 mm 5 mps 758 mmHg 44%
15:00 +26°C° 0 mm 5 mps 758 mmHg 44%
16:00 +25°C° 0 mm 4 mps 757 mmHg 47%
17:00 +23°C° 0 mm 4 mps 757 mmHg 51%
18:00 +22°C° 0 mm 4 mps 757 mmHg 55%
19:00 +21°C° 0 mm 4 mps 757 mmHg 59%
20:00 +19°C° 0 mm 4 mps 757 mmHg 63%
21:00 +17°C° 0 mm 4 mps 757 mmHg 68%
22:00 +15°C° 0 mm 4 mps 757 mmHg 69%
23:00 +14°C° 0 mm 3 mps 757 mmHg 71%
Show more